Regional Weather Roundup
Issued by NWS

Home | Current Version | Previous Version | Graphics & Text | Print | Product List | Glossary On
Versions: 1 2 3 4 5 6 7 8 9 10 11 12 13 14 15 16 17 18 19 20 21 22 23 24 25 26 27 28 29 30 31 32 33 34 35 36 37 38 39 40 41 42 43 44 45 46 47 48 49 50
000
ASUS45 KTFX 230610
RWRMT
MONTANA REGIONAL WEATHER ROUNDUP
NATIONAL WEATHER SERVICE GREAT FALLS MT
1200 AM MDT SAT JUL 23 2016

NOTE: "FAIR" INDICATES FEW OR NO CLOUDS BELOW 12000 FEET WITH NO
SIGNIFICANT WEATHER AND/OR OBSTRUCTIONS TO VISIBILITY.

MTZ001>007-043-230700-
WEST OF THE DIVIDE

CITY           SKY/WX    TMP DP  RH WIND       PRES   REMARKS
KALISPELL      CLOUDY    58  48  69 VRB6      30.11R
MISSOULA       PTCLDY    63  43  48 VRB3      30.16R
BUTTE          CLEAR     63  42  46 NW12      30.18R
MULLAN PASS    CLEAR     46  44  93 W8        30.25S
ANACONDA         N/A     64  43  45 NW5       30.17R
DEER LODGE       N/A     63  43  48 W14       30.18R
EUREKA           N/A     63  46  55 SE6       30.09R
HAMILTON         N/A     66  41  39 SW5       30.17R
LIBBY            N/A     54  52  94 CALM      30.13R
RONAN            N/A     62  47  58 CALM      30.19R
$$

MTZ008-052>055-230700-
SOUTHWEST MONTANA

CITY           SKY/WX    TMP DP  RH WIND       PRES   REMARKS
BOZEMAN        CLEAR     66  42  41 W8        30.09R
DILLON         CLEAR     63  42  46 SE6       30.14R
W YELLOWSTONE  CLEAR     64  18  16 W9        30.19S
ENNIS          CLEAR     61  39  44 VRB5      30.17R
THREE FORKS      N/A     65   7  10 CALM      30.08R
TWIN BRIDGES     N/A     70  38  31 N3        30.10R
$$

MTZ009-010-012-014-046-048-049-054-230700-
EAST SLOPES AND CENTRAL MONTANA

CITY           SKY/WX    TMP DP  RH WIND       PRES   REMARKS
CUT BANK       PTCLDY    60  41  49 SW20G28   30.01R
GREAT FALLS    PTCLDY    57  39  51 W6        30.02S
MALMSTROM AFB  PTCLDY    60  43  53 SE6       30.03R
HELENA         CLEAR     70  41  34 W24       30.08R
CHOTEAU          N/A     63  37  39 NW15      30.06F
$$

MTZ011-013-016-021-045-047-050-051-230700-
NORTH CENTRAL MONTANA

CITY           SKY/WX    TMP DP  RH WIND       PRES   REMARKS
HAVRE            N/A    N/A N/A N/A MISG      29.95R
LEWISTOWN      CLOUDY    62  49  62 W9        30.04S
N BAR RANCH      N/A     63  46  55 NW21G28   30.03R
CHINOOK          N/A     64  52  63 SW8       29.94R
$$

MTZ017>020-022>027-061-062-230700-
NORTHEAST MONTANA

CITY           SKY/WX    TMP DP  RH WIND       PRES   REMARKS
GLASGOW        CLOUDY    72  63  73 VRB7      29.80R
JORDAN           N/A     70  59  68 W5        29.88R
SIDNEY         CLOUDY    71  64  78 SE24G33   29.81F
WOLF POINT     CLOUDY    78  63  59 SE7       29.78S
PLENTYWOOD       N/A     73  64  73 S10G16    29.85R
$$

MTZ028>42-056>058-230700-
SOUTHCENTRAL AND SOUTHEAST MONTANA

CITY           SKY/WX    TMP DP  RH WIND       PRES   REMARKS
BAKER          CLOUDY    68  62  81 SE30G39   29.88F
BILLINGS       PTCLDY    77  43  29 N25G35    29.89R
LIVINGSTON     CLEAR     68  38  33 NW12      30.07R
MILES CITY     CLEAR     80  54  40 E9        29.74F
FORSYTH          N/A     75  52  43 W9        29.77R
LAUREL           N/A     77  44  30 NW12      29.92R
ROUNDUP          N/A     71  46  40 NW22      29.83R
$$

REGIONAL REPORTS...DAKOTAS

CITY           SKY/WX    TMP DP  RH WIND       PRES   REMARKS
WILLISTON      CLOUDY    72  64  76 SE17G24   29.84R
MINOT          CLOUDY    76  63  64 SE9       29.89R
DICKINSON      LGT RAIN  65  60  84 SE15      29.92R
BEACH            N/A     66  64  94 E13G22    29.92F
CROSBY           N/A     68  66  94 E9G21     29.84F
WATFORD CITY   LGT RAIN  68  66  94 S7        29.95F
BISMARCK       LGT RAIN  68  64  87 S12       29.93F
GRAND FORKS    CLOUDY    74  65  73 E7        29.95F
FARGO          CLOUDY    72  66  81 E8        29.95F
BUFFALO SD       N/A     71  60  68 E20G28    29.86S
RAPID CITY     CLOUDY    73  57  57 SE9       29.95R
$$

REGIONAL REPORTS...WYOMING/IDAHO/WASHINGTON

CITY           SKY/WX    TMP DP  RH WIND       PRES   REMARKS
GILLETTE       CLOUDY    76  57  51 S10       29.92F
SHERIDAN       CLEAR     75  42  30 W8        29.87S
BUFFALO WY     CLOUDY    75  42  30 SE9       29.98S
CODY           CLEAR     75  28  17 SW10      30.01S
YELLOWSTONE LA   N/A     54  25  32 CALM      30.29S
IDAHO FALLS    CLEAR     64  36  35 SW13      30.10R
SALMON         CLEAR     68  43  40 NE13      30.11R
BOISE          CLEAR     75  42  30 NW10      30.08R
SPOKANE        CLEAR     60  55  83 S7        30.14S
$$

REGIONAL REPORTS...ALBERTA

CITY           SKY/WX    TMP DP  RH WIND       PRES   REMARKS
EDMONTON       PTCLDY    63  54  72 NW6       29.85R
CALGARY        MOCLDY    63  48  59 N5        29.87R
LETHBRIDGE     CLOUDY    59  45  58 SW18G26   29.91S
MEDICINE HAT   PTCLDY    61  55  82 SW6       29.89F
WATERTON GATE    N/A     59  41  51 SW20G31     N/A
CARDSTON         N/A     59  41  51 W9          N/A
MILK RIVER       N/A     59  43  55 W12         N/A
ONEFOUR          N/A     55  50  82 W2          N/A
$$

REGIONAL REPORTS...SASKATCHEWAN

CITY           SKY/WX    TMP DP  RH WIND       PRES   REMARKS
SWIFT CURRENT  PTCLDY    61  57  88 NE12      29.82F
REGINA         TSTM      68  63  83 NE18G26   29.77F
SASKATOON      LGT RAIN  63  63 100 W2        29.87F
CYPRESS HILLS    N/A     55  52  88 W9          N/A
VAL MARIE        N/A     64  59  82 W21G26      N/A
ROCKGLEN         N/A     66  61  82 S6          N/A
ASSINIBOIA       N/A     59  55  88 SW6         N/A
$$



USA.gov is the U.S. government's official web portal to all federal, state and local government web resources and services.